Location: ?????????
(55.2059°N, 38.9229°E)
Time: 19:48:20
(UTC+00:00)

Daily predictions for brighter satellites

Satellite Brightness Start Highest point End
(mag) Time Altitude Azimuth Time Altitude Azimuth Time Altitude Azimuth
RESURS DK-1 3.9 13:37:57 10° NNW 13:40:49 18° NNE 13:43:40 10° ENE
CZ-4B R/B 4.5 13:38:09 10° ESE 13:42:06 24° NE 13:46:00 10° N
SL-16 R/B 2.8 13:36:24 10° NNE 13:42:41 74° WNW 13:48:56 10° SSW
Aureole 3 Rocket 3.0 13:37:58 10° N 13:43:03 79° ENE 13:46:46 10° SSE
Cosmos 2297 Rocket 2.4 13:43:14 10° SW 13:48:53 80° NW 13:54:36 10° NNE
Cosmos 407 Rocket 4.0 13:44:37 10° NNW 13:49:25 36° NE 13:54:09 10° ESE
Cosmos 1634 Rocket 4.1 13:43:04 10° N 13:49:25 88° E 13:55:46 10° S
Cosmos 1606 2.5 13:45:48 10° S 13:49:26 85° E 13:53:08 10° NNE
Cosmos 1953 Rocket 3.6 13:45:05 10° N 13:49:35 84° ENE 13:54:02 10° SSE
USA 305 3.5 13:46:38 10° W 13:50:18 51° SSW 13:54:03 10° SE
Cosmos 2298 Rocket 4.1 13:45:37 10° SSW 13:50:57 87° ESE 13:56:20 10° NNE
SMAP 3.4 13:46:56 10° SE 13:51:18 42° ENE 13:55:42 10° N
Cosmos 1500 3.2 13:51:05 10° N 13:54:33 48° ENE 13:57:58 10° SSE
Cosmos 2219 3.5 13:50:07 10° S 13:55:33 53° ESE 14:01:02 10° NE
Cosmos 2251 Rocket 3.9 13:51:34 10° NNW 13:56:40 42° NE 14:01:45 10° ESE
Helios 1B rocket 2.3 13:53:06 10° SSE 13:57:01 72° ENE 14:00:59 10° NNW
UNK 4.5 13:53:11 10° N 13:57:42 55° WNW 14:02:12 10° SW
H-2A R/B 3.7 13:54:22 10° SSW 13:59:02 37° W 14:03:39 10° NNW
CZ-4B R/B 4.2 13:56:38 10° SE 13:59:56 34° ENE 14:03:18 10° N
NOSS 3-3 (C) 4.0 13:58:11 10° SW 14:03:58 84° NW 14:10:42 11° NE
NOSS 3-3 (A) 4.0 13:58:34 10° SW 14:04:18 83° NW 14:11:01 11° NE
Cosmos 2142 Rocket 4.4 13:58:40 10° N 14:04:49 73° ENE 14:10:58 10° SSE
Cosmos 1833 Rocket 4.1 14:02:45 10° NNW 14:06:53 20° NNE 14:10:23 12° ENE
Cosmos 405 Rocket 2.7 14:04:03 10° S 14:07:49 60° E 14:11:39 10° NNE
SJ-11-01 4.3 14:05:07 10° SSE 14:09:47 90° NE 14:14:28 10° NNW
ISS -0.9 14:08:02 10° WSW 14:10:30 19° SSW 14:13:00 10° SSE
Cosmos 2082 4.1 14:05:29 10° S 14:10:47 45° ESE 14:16:02 11° NE
Cosmos 1862 4.1 14:08:32 10° NNW 14:12:22 53° W 14:16:11 10° S
Cosmos 2279 Rocket 4.0 14:07:09 10° N 14:13:27 89° E 14:19:41 10° S
BREEZE-M DEB (TANK) 3.7 14:13:17 10° SSE 14:13:28 10° SSE 14:13:38 10° SSE
Cosmos 2151 3.1 14:09:43 10° NNW 14:14:01 82° W 14:18:17 10° S
COSMO-SKYMED 1 4.3 14:15:04 13° ENE 14:15:39 14° E 14:17:50 10° ESE
Lacrosse 4 Rocket 1.4 14:13:52 10° NW 14:18:17 83° NE 14:22:33 10° SE
Cosmos 1023 Rocket 4.4 14:13:46 10° NNW 14:18:57 69° ENE 14:24:03 10° SE
Cosmos-2242 4.0 14:15:49 10° SE 14:19:28 27° E 14:23:00 11° NNE
Cosmos 2058 Rocket 3.0 14:16:46 10° S 14:21:10 66° E 14:25:32 10° NNE
Cosmos 1190 Rocket 4.5 14:16:23 10° NNW 14:21:23 39° NE 14:26:21 10° ESE
SL-08 RB Rocket 4.4 14:18:04 10° S 14:22:30 58° W 14:26:59 10° NNW
Cosmos 1606 Rocket 4.4 14:23:11 10° SSW 14:27:32 53° WNW 14:31:53 10° N
Cosmos 1726 Rocket 4.0 14:23:59 10° SSW 14:28:23 65° WNW 14:32:49 10° N
CZ-2D R/B 3.8 14:27:30 10° S 14:31:08 58° W 14:34:47 10° NNW
YAOGAN 11 4.2 14:30:47 10° NNE 14:35:19 65° ESE 14:39:50 10° S
Cosmos 1812 3.3 14:33:38 10° SSE 14:36:56 32° E 14:38:46 20° NE
Cosmos 2263 Rocket 2.3 14:31:40 10° SSW 14:37:07 59° ESE 14:41:40 15° NE
AQUARIUS 4.1 14:32:40 10° SSE 14:37:08 76° ENE 14:41:37 10° NNW
Cosmos 44 Rocket 4.4 14:32:53 10° NW 14:37:33 31° NNE 14:40:18 20° ENE
Cosmos 1844 Rocket 4.1 14:34:29 10° SE 14:37:57 17° E 14:38:39 17° E
Nadezhda 4 Rocket 4.1 14:32:10 10° SSE 14:38:02 50° E 14:43:55 10° NNE
BREEZE-M DEB (TANK) 4.0 14:34:48 10° SW 14:38:35 58° SSE 14:48:29 17° ENE
Cosmos 2084 4.5 14:36:52 10° WNW 14:40:11 27° N 14:41:59 19° NE
Cosmos 1437 Rocket 4.4 14:37:03 10° NNW 14:40:28 35° W 14:43:54 10° SSW
CORIOLIS 4.2 14:35:28 10° SSE 14:40:50 85° WSW 14:46:16 10° NNW
CZ-2C R/B 3.4 14:39:09 10° S 14:42:39 54° WSW 14:46:14 10° NNW
Meteor 1-20 Rocket 4.1 14:37:57 10° NNW 14:43:32 73° ENE 14:49:10 10° SSE
Cosmos 2082 Rocket 3.8 14:39:58 10° NNW 14:43:44 18° NNE 14:45:41 15° NE
Cosmos 2227 Rocket 2.7 14:39:35 10° SW 14:45:11 59° NW 14:50:24 12° NNE
USA 276 3.9 14:44:36 10° S 14:45:56 13° SSE 14:46:24 13° SE
Cosmos 1140 Rocket 3.6 14:41:19 10° NNW 14:46:33 82° WSW 14:51:42 10° SSE
Cosmos 1766 Rocket 4.4 14:43:25 10° N 14:47:13 28° ENE 14:50:59 10° SE
ATLAS CENTAUR R/B 3.6 14:46:06 10° WNW 14:49:51 43° SSW 14:56:41 10° SE
ADEOS 3.9 14:46:42 10° SE 14:51:36 43° ENE 14:56:32 10° N
NOSS 8 (A) 4.2 14:50:11 10° SW 14:53:36 60° SE 14:54:27 40° ENE
YAOGAN 1 3.4 14:52:56 26° ENE 14:53:39 28° ENE 14:57:20 10° N
Cosmos 1603 3.7 14:49:00 10° NW 14:54:45 85° WSW 15:00:25 10° SSE
DMSP B5D2-2 4.0 14:50:44 10° NNE 14:55:59 85° ESE 15:01:13 10° SSW
Cosmos 1933 4.4 14:53:54 10° SSE 14:56:42 26° ESE 14:56:42 26° ESE
Cosmos 1666 3.7 14:55:16 10° NNW 14:58:40 44° W 15:02:02 10° SSW
CBERS 1 LM4 rocket 4.2 14:57:33 10° SSE 15:02:17 68° ENE 15:07:01 10° NNW
SKYMED 2 4.2 15:03:42 32° E 15:04:15 33° E 15:08:12 10° SSE
Meteor PRIRODA 4.4 15:06:54 31° NNE 15:06:54 31° NNE 15:09:09 10° N
SL-08 R/B 4.3 15:07:56 26° ESE 15:07:56 26° ESE 15:11:12 10° SSE
Meteor 1-31 Rocket 3.7 15:05:47 10° S 15:09:22 48° W 15:13:01 10° NNW
CZ-4B R/B 3.5 15:09:18 36° E 15:09:44 37° ENE 15:13:35 10° N
OPS 6432 4.3 15:07:25 10° NW 15:10:28 50° NNE 15:10:28 50° NNE
Cosmos 1607 4.1 15:08:40 10° SW 15:15:04 76° NW 15:19:10 24° NE
Cosmos 676 Rocket 4.0 15:10:09 10° NNW 15:15:25 57° ENE 15:19:20 18° SE
ATLAS 2AS CENTAUR R/B 2.6 15:08:46 10° NW 15:15:51 85° NE 15:21:39 15° SE
Cosmos 1943 4.3 15:13:14 10° NW 15:18:36 46° WSW 15:23:57 10° S
RESURS DK-1 2.3 15:15:21 10° NNW 15:19:27 61° NE 15:20:29 44° ESE
CZ-4B R/B 3.6 15:15:19 10° SSE 15:20:21 75° WSW 15:25:18 10° NNW
Helios 1A 2.8 15:22:23 36° NNE 15:23:57 67° ESE 15:28:05 10° S
Radarsat Rocket 4.0 15:19:09 10° SSE 15:24:59 86° WSW 15:31:18 10° NNW
Cosmos 1812 Rocket 3.4 15:22:10 10° S 15:26:30 84° ESE 15:29:15 23° NNE
NOAA 6 4.0 15:22:30 10° SSE 15:27:39 82° WSW 15:32:48 10° NNW
Cosmos 1782 2.8 15:24:10 10° S 15:27:49 57° ESE 15:27:49 57° ESE
Cosmos 1271 Rocket 3.6 15:24:14 10° N 15:26:37 33° NNE 15:26:37 33° NNE
Cosmos 407 Rocket 4.3 15:26:35 10° NW 15:31:35 51° WSW 15:36:32 10° S
Cosmos 2297 Rocket 3.8 15:29:02 10° W 15:33:48 27° NNW 15:37:23 15° NNE
Cosmos 2344 3.6 15:26:52 10° SSW 15:34:02 54° SE 15:37:03 34° ENE
CZ-4B DEB 4.2 15:29:09 10° SE 15:34:28 57° ENE 15:39:55 10° NNW
ADEOS Rocket 3.7 15:35:52 30° NE 15:35:52 30° NE 15:40:04 10° N
Cosmos 2219 4.2 15:34:33 10° WSW 15:39:53 42° NW 15:43:29 20° NNE
Cosmos 1741 Rocket 4.5 15:37:22 10° NNW 15:42:04 42° NE 15:42:04 42° NE
Cosmos 1850 Rocket 4.4 15:39:06 10° NNW 15:43:36 43° NE 15:43:36 43° NE
Timation 2 Rocket 4.1 15:39:52 10° S 15:45:28 44° ESE 15:45:41 44° ESE
Cosmos 1954 Rocket 4.0 15:40:59 10° NNW 15:46:18 82° WSW 15:51:05 12° SSE
Cosmos 220 Rocket 4.5 15:42:51 10° NNW 15:47:07 59° WSW 15:51:17 10° S
Cosmos 1844 4.1 15:43:24 10° S 15:48:28 44° ESE 15:48:28 44° ESE
Cosmos 2056 Rocket 4.1 15:44:11 10° S 15:48:24 41° SE 15:48:24 41° SE
S3M 4.1 15:44:50 10° N 15:50:40 48° ENE 15:50:40 48° ENE
USA 234 3.5 15:50:14 42° E 15:51:56 52° SE 15:58:17 10° SW
Cosmos 1833 Rocket 3.0 15:46:45 10° NNW 15:52:06 47° NE 15:52:06 47° NE
COSMO-SKYMED 1 2.4 15:52:17 79° NE 15:52:32 85° ESE 15:56:53 10° SSW
Meteor 1-14 Rocket 4.1 15:47:24 10° N 15:52:54 61° ENE 15:53:30 57° E
Cosmos 1553 Rocket 3.9 15:46:32 10° N 15:52:56 77° ENE 15:59:10 10° SSE
Lacrosse 5 2.8 15:48:42 10° SSW 15:52:30 32° SSE 15:52:30 32° SSE
Cosmos 2082 4.5 15:49:30 10° WSW 15:54:55 47° NW 15:57:54 25° NNE
Lacrosse 4 Rocket 4.3 15:53:08 10° WNW 15:56:08 18° WSW 15:59:05 10° SSW
Cosmos-2242 4.1 15:52:31 10° SW 15:56:41 44° WNW 15:59:41 17° N
Meteor 2-2 Rocket 4.5 15:54:27 10° SSW 16:00:14 72° WNW 16:05:55 11° NNE
PAYLOAD B 4.1 15:59:55 59° ESE 16:00:44 67° ENE 16:06:18 10° NNW
Cosmos 2026 Rocket 4.0 15:59:16 10° SSW 16:05:34 81° WNW 16:12:00 10° N
COSMOS 2406 4.4 16:01:11 10° NNW 16:04:56 27° NNE 16:04:56 27° NNE
Cosmos 2221 4.2 16:02:46 10° S 16:04:18 22° S 16:04:18 22° S
Cosmos 1818 3.4 16:02:34 10° SW 16:08:00 75° SE 16:08:07 75° ESE
Cosmos 1371 Rocket 4.4 16:08:15 10° SSW 16:12:11 49° S 16:12:11 49° S
CZ-4B R/B 3.5 16:19:50 55° NNE 16:19:50 55° NNE 16:24:17 10° NNW
Cosmos 44 Rocket 3.8 16:14:41 10° NW 16:18:59 54° NNW 16:18:59 54° NNW
Cosmos 1844 Rocket 2.7 16:15:24 10° SSW 16:20:21 69° S 16:20:21 69° S
Meteor 1-26 Rocket 4.1 16:15:24 10° SSW 16:21:00 89° WNW 16:21:52 66° N
Cosmos 2263 Rocket 3.3 16:16:09 10° WSW 16:21:20 39° NW 16:23:22 29° N
Cosmos 1092 Rocket 4.3 16:16:59 10° SSW 16:23:03 63° WNW 16:29:11 10° N
YAOGAN 1 3.5 16:29:59 45° WNW 16:29:59 45° WNW 16:33:42 10° NNW
Cosmos 2082 Rocket 3.5 16:24:18 10° NNW 16:27:31 28° N 16:27:31 28° N
Cosmos 1420 Rocket 4.5 16:24:15 10° SSW 16:28:11 52° SSW 16:28:11 52° SSW
Cosmos 2227 Rocket 4.0 16:26:01 10° WNW 16:30:25 23° NNW 16:32:12 20° N
Cosmos 1417 Rocket 4.5 16:31:01 10° NNW 16:37:20 80° W 16:39:18 47° S
ATLAS 2AS CENTAUR R/B 4.1 17:00:10 10° WNW 17:06:09 32° WSW 17:09:08 23° SSW
Cosmos 2297 Rocket 4.4 17:16:18 10° NW 17:19:11 16° NNW 17:19:11 16° NNW
ADEOS Rocket 4.2 17:22:48 32° NNW 17:22:48 32° NNW 17:26:01 10° NNW
USA 234 4.1 17:37:35 45° WSW 17:37:35 45° WSW 17:41:53 10° WSW
Lacrosse 5 4.4 17:30:45 10° WSW 17:31:43 16° WSW 17:31:43 16° WSW
Cosmos 1833 Rocket 4.4 17:30:50 10° NW 17:33:48 29° WNW 17:33:48 29° WNW
Cosmos 2344 4.0 17:41:11 10° WSW 17:47:04 53° WNW 17:47:04 53° WNW
